Weather History for Forest City, IA

Change the Weather History Date:

Thursday, October 18, 2012

  Actual Average Record
Temperature  
Mean Temperature 42 °F -  
Max Temperature 46 °F 54 °F 53 °F (2014)
Min Temperature 37 °F 36 °F 32 °F (2011)
Degree Days  
Heating Degree Days 24    
Moisture  
Dew Point 39 °F    
Average Humidity 87    
Maximum Humidity 93    
Minimum Humidity 66    
Precipitation  
Precipitation 0.02 in - - ()
Sea Level Pressure  
Sea Level Pressure 29.29 in    
Wind  
Wind Speed 14 mph (WNW)    
Max Wind Speed 23 mph    
Max Gust Speed 31 mph    
Visibility 7 miles    
Events Rain    
Averages and records for this station are not official NWS values.
T = Trace of Precipitation, MM = Missing Value Source: NWS Daily Summary

Daily Weather History Graph

Daily Weather History Graph

Search for Another Location

Airport:

Trip Planner

Search our weather history database for the weather conditions in past years. The results will help you decide how hot, cold, wet, or windy it might be!

Date:

Astronomy

Oct. 18, 2012 Rise Set
Actual Time 7:32 AM CDT 6:25 PM CDT
Civil Twilight 7:03 AM CDT 6:54 PM CDT
Nautical Twilight 6:30 AM CDT 7:27 PM CDT
Astronomical Twilight 5:57 AM CDT 8:00 PM CDT
Moon 11:20 AM CDT (10/18) 8:54 PM CDT (10/18)
Length of Visible Light 11h 51m
Length of Day
10h 53m
Waxing Crescent, 14% of the Moon is Illuminated
Oct 18
Waxing Crescent
Oct 21
First Quarter
Oct 29
Full
Nov 6
Last Quarter
Nov 13
New

Hourly Weather History & Observations

Time (CDT) Temp. Windchill Dew Point Humidity Pressure Visibility Wind Dir Wind Speed Gust Speed Precip Events Conditions
12:15 AM 44.6 °F 36.6 °F 33.8 °F 66% 29.35 in 10.0 mi West 19.6 mph 26.5 mph N/A   Overcast
12:35 AM 42.8 °F 34.5 °F 33.8 °F 70% 29.34 in 10.0 mi WNW 18.4 mph 26.5 mph N/A   Overcast
12:55 AM 42.8 °F 34.0 °F 33.8 °F 70% 29.33 in 10.0 mi West 20.7 mph 27.6 mph N/A   Overcast
1:35 AM 42.8 °F 33.5 °F 33.8 °F 70% 29.33 in 10.0 mi WNW 23.0 mph - N/A   Overcast
1:55 AM 42.8 °F 34.8 °F 35.6 °F 76% 29.33 in 7.0 mi WNW 17.3 mph 27.6 mph N/A Rain Light Rain
2:15 AM 42.8 °F 34.8 °F 35.6 °F 76% 29.32 in 10.0 mi West 17.3 mph 25.3 mph N/A Rain Light Rain
2:35 AM 42.8 °F 34.5 °F 35.6 °F 76% 29.33 in 10.0 mi West 18.4 mph 31.1 mph N/A   Overcast
2:55 AM 42.8 °F 34.3 °F 35.6 °F 76% 29.33 in 10.0 mi West 19.6 mph 28.8 mph N/A   Overcast
3:15 AM 41.0 °F 32.2 °F 35.6 °F 81% 29.32 in 10.0 mi West 18.4 mph 27.6 mph N/A   Overcast
3:35 AM 42.8 °F 34.5 °F 35.6 °F 76% 29.31 in 10.0 mi West 18.4 mph 26.5 mph N/A   Overcast
3:55 AM 41.0 °F 33.5 °F 37.4 °F 87% 29.31 in 10.0 mi West 13.8 mph 20.7 mph N/A   Light Drizzle
4:15 AM 41.0 °F 35.2 °F 37.4 °F 87% 29.30 in 10.0 mi West 9.2 mph 19.6 mph N/A   Overcast
4:35 AM 41.0 °F 35.2 °F 35.6 °F 81% 29.30 in 10.0 mi West 9.2 mph 17.3 mph N/A   Overcast
4:55 AM 41.0 °F 33.9 °F 37.4 °F 87% 29.29 in 7.0 mi West 12.7 mph 18.4 mph N/A Rain Light Rain
5:15 AM 41.0 °F 33.5 °F 37.4 °F 87% 29.28 in 10.0 mi West 13.8 mph 24.2 mph N/A Rain Light Rain
5:35 AM 41.0 °F 33.1 °F 37.4 °F 87% 29.28 in 7.0 mi West 15.0 mph 21.9 mph N/A Rain Light Rain
5:55 AM 41.0 °F 33.9 °F 37.4 °F 87% 29.28 in 7.0 mi West 12.7 mph 18.4 mph N/A   Overcast
6:35 AM 39.2 °F 29.6 °F 35.6 °F 87% 29.27 in 5.0 mi West 19.6 mph 27.6 mph N/A   Overcast
6:55 AM 39.2 °F 29.6 °F 35.6 °F 87% 29.27 in 7.0 mi West 19.6 mph 25.3 mph N/A   Unknown
7:15 AM 39.2 °F 30.5 °F 35.6 °F 87% 29.27 in 5.0 mi West 16.1 mph 24.2 mph N/A Rain Light Rain
7:35 AM 39.2 °F 31.6 °F 35.6 °F 87% 29.26 in 4.0 mi West 12.7 mph 18.4 mph N/A Rain Light Rain
7:55 AM 37.4 °F 28.2 °F 35.6 °F 93% 29.26 in 10.0 mi West 16.1 mph - N/A   Overcast
8:15 AM 37.4 °F 28.9 °F 35.6 °F 93% 29.26 in 4.0 mi West 13.8 mph - N/A   Overcast
8:35 AM 37.4 °F 29.8 °F 35.6 °F 93% 29.26 in 2.5 mi West 11.5 mph 19.6 mph N/A Rain Light Rain
9:15 AM 39.2 °F 31.6 °F 35.6 °F 87% 29.25 in 5.0 mi West 12.7 mph 19.6 mph N/A   Overcast
9:35 AM 39.2 °F 32.0 °F 37.4 °F 93% 29.25 in 3.0 mi West 11.5 mph 18.4 mph N/A   Drizzle
9:55 AM 39.2 °F 32.5 °F 37.4 °F 93% 29.23 in 3.0 mi West 10.4 mph 20.7 mph N/A Rain Light Rain
10:15 AM 41.0 °F 33.9 °F 37.4 °F 87% 29.23 in 3.0 mi West 12.7 mph 18.4 mph N/A   Overcast
10:35 AM 41.0 °F 34.3 °F 37.4 °F 87% 29.23 in 2.0 mi West 11.5 mph 18.4 mph N/A Rain Light Rain
11:15 AM 41.0 °F 33.9 °F 39.2 °F 93% 29.22 in 1.8 mi West 12.7 mph 18.4 mph N/A Rain Rain
11:35 AM 42.8 °F 35.1 °F 39.2 °F 87% 29.22 in 3.0 mi West 16.1 mph 20.7 mph N/A   Overcast
11:55 AM 42.8 °F 36.2 °F 39.2 °F 87% 29.22 in 4.0 mi West 12.7 mph - N/A   Overcast
12:15 PM 42.8 °F 35.8 °F 41.0 °F 93% 29.22 in 2.0 mi West 13.8 mph 19.6 mph N/A Rain Light Rain
12:35 PM 42.8 °F 35.1 °F 41.0 °F 93% 29.22 in 2.5 mi West 16.1 mph - N/A   Overcast
12:55 PM 42.8 °F 35.8 °F 41.0 °F 93% 29.22 in 3.0 mi West 13.8 mph 19.6 mph N/A   Overcast
1:15 PM 42.8 °F 35.4 °F 41.0 °F 93% 29.23 in 3.0 mi West 15.0 mph - N/A   Overcast
1:35 PM 42.8 °F 36.6 °F 41.0 °F 93% 29.23 in 3.0 mi WNW 11.5 mph - N/A   Unknown
1:55 PM 42.8 °F 35.8 °F 41.0 °F 93% 29.23 in 5.0 mi WNW 13.8 mph - N/A   Overcast
2:15 PM 42.8 °F 36.2 °F 41.0 °F 93% 29.24 in 7.0 mi WNW 12.7 mph - N/A   Overcast
2:35 PM 44.6 °F 39.2 °F 41.0 °F 87% 29.24 in 7.0 mi West 10.4 mph - N/A   Overcast
2:55 PM 44.6 °F 40.2 °F 41.0 °F 87% 29.25 in 5.0 mi WNW 8.1 mph - N/A   Overcast
3:15 PM 44.6 °F 40.7 °F 41.0 °F 87% 29.25 in 10.0 mi WNW 6.9 mph - N/A   Light Drizzle
3:35 PM 44.6 °F 40.7 °F 41.0 °F 87% 29.25 in 7.0 mi WNW 6.9 mph - 0.02 in Rain Rain
3:55 PM 44.6 °F 41.4 °F 42.8 °F 93% 29.26 in 10.0 mi NW 5.8 mph - 0.02 in   Overcast
4:15 PM 46.4 °F 42.9 °F 41.0 °F 81% 29.27 in 10.0 mi WNW 6.9 mph - N/A   Overcast
4:35 PM 46.4 °F 42.9 °F 41.0 °F 81% 29.28 in 10.0 mi WNW 6.9 mph - N/A   Overcast
4:55 PM 44.6 °F 39.7 °F 41.0 °F 87% 29.28 in 3.0 mi WNW 9.2 mph - N/A   Drizzle
5:15 PM 44.6 °F 40.7 °F 42.8 °F 93% 29.29 in 3.0 mi NW 6.9 mph - N/A   Overcast
5:35 PM 44.6 °F 41.4 °F 42.8 °F 93% 29.30 in 4.0 mi WNW 5.8 mph - N/A Rain Light Rain
5:55 PM 44.6 °F 39.7 °F 42.8 °F 93% 29.30 in 5.0 mi NW 9.2 mph - N/A   Overcast
6:15 PM 44.6 °F 39.7 °F 42.8 °F 93% 29.31 in 10.0 mi NNW 9.2 mph - N/A   Overcast
6:55 PM 44.6 °F 38.8 °F 41.0 °F 87% 29.33 in 10.0 mi NNW 11.5 mph - N/A   Overcast
7:15 PM 44.6 °F 39.2 °F 41.0 °F 87% 29.34 in 10.0 mi NNW 10.4 mph - N/A   Overcast
7:35 PM 44.6 °F 39.7 °F 41.0 °F 87% 29.35 in 10.0 mi NNW 9.2 mph - N/A   Overcast
7:55 PM 44.6 °F 40.2 °F 41.0 °F 87% 29.35 in 10.0 mi NNW 8.1 mph - N/A   Overcast
8:15 PM 44.6 °F 40.2 °F 41.0 °F 87% 29.36 in 10.0 mi NW 8.1 mph - N/A   Overcast
8:35 PM 44.6 °F 41.4 °F 41.0 °F 87% 29.36 in 10.0 mi NW 5.8 mph - N/A   Overcast
8:55 PM 42.8 °F 39.3 °F 41.0 °F 93% 29.37 in 10.0 mi NW 5.8 mph - N/A   Overcast
9:15 PM 42.8 °F 39.3 °F 41.0 °F 93% 29.36 in 10.0 mi NW 5.8 mph - N/A   Overcast
9:35 PM 44.6 °F 42.2 °F 41.0 °F 87% 29.37 in 10.0 mi NW 4.6 mph - N/A   Overcast
9:55 PM 44.6 °F 43.1 °F 42.8 °F 93% 29.37 in 10.0 mi NW 3.5 mph - N/A   Overcast
10:15 PM 44.6 °F - 42.8 °F 93% 29.37 in 10.0 mi Calm Calm - N/A   Overcast
10:55 PM 44.6 °F - 42.8 °F 93% 29.37 in 10.0 mi Calm Calm - N/A   Light Drizzle